• In Spain
  • List of Countries
  • For 7 days
  • Water Temperature
  • Satellite Maps
  • Weather Map
  • Weather Widgets
  • user-avatar
    Login

    Hourly Weather Nakhchivan

    Today, 21 July, Saturday

    Time Temperature Precipitation Wind Pressure Humidity
    00:00 +29°C° 0 mm 3 mps 682 mmHg 37%
    01:00 +29°C° 0 mm 2 mps 682 mmHg 39%
    02:00 +28°C° 0 mm 2 mps 682 mmHg 41%
    03:00 +27°C° 0 mm 2 mps 682 mmHg 41%
    04:00 +27°C° 0 mm 2 mps 682 mmHg 42%
    05:00 +28°C° 0 mm 2 mps 682 mmHg 43%
    06:00 +28°C° 0 mm 2 mps 683 mmHg 44%
    07:00 +29°C° 0 mm 2 mps 683 mmHg 39%
    08:00 +31°C° 0 mm 2 mps 683 mmHg 33%
    09:00 +34°C° 0 mm 3 mps 683 mmHg 25%
    10:00 +35°C° 0 mm 3 mps 683 mmHg 22%
    11:00 +36°C° 0 mm 2 mps 683 mmHg 20%
    12:00 +37°C° 0 mm 2 mps 683 mmHg 17%
    13:00 +37°C° 0 mm 2 mps 683 mmHg 16%
    14:00 +38°C° 0 mm 3 mps 683 mmHg 15%
    15:00 +38°C° 0 mm 3 mps 682 mmHg 14%
    16:00 +38°C° 0 mm 3 mps 683 mmHg 15%
    17:00 +38°C° 0 mm 4 mps 683 mmHg 16%
    18:00 +37°C° 0 mm 4 mps 683 mmHg 17%
    19:00 +35°C° 0 mm 4 mps 683 mmHg 24%
    20:00 +34°C° 0 mm 4 mps 683 mmHg 31%
    21:00 +31°C° 0 mm 3 mps 683 mmHg 38%
    22:00 +30°C° 0 mm 3 mps 683 mmHg 42%
    23:00 +29°C° 0 mm 3 mps 683 mmHg 46%

    Tomorrow, 22 July, Sunday

    Time Temperature Precipitation Wind Pressure Humidity
    00:00 +28°C° 0 mm 3 mps 683 mmHg 51%
    01:00 +28°C° 0 mm 3 mps 683 mmHg 53%
    02:00 +27°C° 0 mm 3 mps 683 mmHg 55%
    03:00 +26°C° 0 mm 2 mps 683 mmHg 57%
    04:00 +26°C° 0 mm 2 mps 683 mmHg 57%
    05:00 +26°C° 0 mm 2 mps 683 mmHg 57%
    06:00 +26°C° 0 mm 2 mps 684 mmHg 57%
    07:00 +28°C° 0 mm 2 mps 684 mmHg 51%
    08:00 +29°C° 0 mm 3 mps 684 mmHg 46%
    09:00 +30°C° 0 mm 3 mps 684 mmHg 41%
    10:00 +33°C° 0 mm 3 mps 684 mmHg 37%
    11:00 +34°C° 0 mm 3 mps 684 mmHg 33%
    12:00 +35°C° 0 mm 3 mps 683 mmHg 29%
    13:00 +36°C° 0 mm 4 mps 683 mmHg 28%
    14:00 +36°C° 0 mm 4 mps 683 mmHg 26%
    15:00 +37°C° 0 mm 5 mps 683 mmHg 24%
    16:00 +36°C° 0.1 mm 5 mps 682 mmHg 27%
    17:00 +35°C° 0.1 mm 5 mps 682 mmHg 30%
    18:00 +34°C° 0.1 mm 5 mps 682 mmHg 32%
    19:00 +33°C° 0.1 mm 5 mps 682 mmHg 37%
    20:00 +30°C° 0.1 mm 4 mps 682 mmHg 43%
    21:00 +28°C° 0.1 mm 3 mps 683 mmHg 48%
    22:00 +28°C° 0 mm 3 mps 683 mmHg 49%
    23:00 +27°C° 0 mm 2 mps 683 mmHg 51%

    Day after tomorrow, 23 July, Monday

    Time Temperature Precipitation Wind Pressure Humidity
    00:00 +27°C° 0 mm 2 mps 683 mmHg 53%
    01:00 +26°C° 0 mm 2 mps 683 mmHg 54%
    02:00 +26°C° 0 mm 2 mps 683 mmHg 55%
    03:00 +26°C° 0 mm 2 mps 683 mmHg 56%
    04:00 +26°C° 0 mm 2 mps 683 mmHg 55%
    05:00 +26°C° 0 mm 2 mps 683 mmHg 55%
    06:00 +26°C° 0 mm 2 mps 683 mmHg 54%
    07:00 +27°C° 0 mm 2 mps 683 mmHg 49%
    08:00 +29°C° 0 mm 2 mps 683 mmHg 44%
    09:00 +30°C° 0 mm 2 mps 683 mmHg 39%
    10:00 +31°C° 0 mm 2 mps 683 mmHg 35%
    11:00 +34°C° 0 mm 2 mps 682 mmHg 32%
    12:00 +35°C° 0 mm 2 mps 682 mmHg 28%
    13:00 +36°C° 0.1 mm 3 mps 682 mmHg 26%
    14:00 +36°C° 0.1 mm 3 mps 682 mmHg 25%
    15:00 +37°C° 0.1 mm 4 mps 681 mmHg 23%
    16:00 +35°C° 0.5 mm 4 mps 681 mmHg 29%
    17:00 +34°C° 0.5 mm 4 mps 681 mmHg 36%
    18:00 +32°C° 0.5 mm 5 mps 681 mmHg 43%
    19:00 +30°C° 0.2 mm 4 mps 681 mmHg 45%
    20:00 +29°C° 0.2 mm 3 mps 682 mmHg 47%
    21:00 +28°C° 0.2 mm 2 mps 682 mmHg 50%
    22:00 +28°C° 0 mm 2 mps 682 mmHg 51%
    23:00 +27°C° 0 mm 2 mps 683 mmHg 53%

    24 July, Tuesday

    Time Temperature Precipitation Wind Pressure Humidity
    00:00 +27°C° 0 mm 1 mps 683 mmHg 55%
    01:00 +27°C° 0 mm 1 mps 682 mmHg 55%
    02:00 +26°C° 0 mm 1 mps 682 mmHg 56%
    03:00 +26°C° 0 mm 1 mps 682 mmHg 57%
    04:00 +26°C° 0 mm 1 mps 682 mmHg 55%
    05:00 +26°C° 0 mm 1 mps 683 mmHg 54%
    06:00 +27°C° 0 mm 1 mps 683 mmHg 52%
    07:00 +28°C° 0 mm 1 mps 683 mmHg 47%
    08:00 +29°C° 0 mm 1 mps 683 mmHg 41%
    09:00 +31°C° 0 mm 1 mps 683 mmHg 35%
    10:00 +32°C° 0 mm 1 mps 683 mmHg 32%
    11:00 +34°C° 0 mm 1 mps 683 mmHg 28%
    12:00 +36°C° 0 mm 2 mps 683 mmHg 24%
    13:00 +37°C° 0 mm 2 mps 683 mmHg 22%
    14:00 +38°C° 0 mm 2 mps 683 mmHg 21%
    15:00 +38°C° 0 mm 2 mps 682 mmHg 19%
    16:00 +38°C° 0 mm 3 mps 683 mmHg 19%
    17:00 +38°C° 0 mm 3 mps 683 mmHg 19%
    18:00 +38°C° 0 mm 3 mps 683 mmHg 20%
    19:00 +36°C° 0 mm 3 mps 683 mmHg 25%
    20:00 +35°C° 0 mm 2 mps 684 mmHg 29%
    21:00 +32°C° 0 mm 2 mps 684 mmHg 34%
    22:00 +31°C° 0 mm 2 mps 684 mmHg 37%
    23:00 +30°C° 0 mm 2 mps 684 mmHg 39%

    25 July, Wednesday

    Time Temperature Precipitation Wind Pressure Humidity
    00:00 +30°C° 0 mm 2 mps 684 mmHg 42%
    01:00 +29°C° 0 mm 2 mps 684 mmHg 43%
    02:00 +29°C° 0 mm 2 mps 684 mmHg 44%
    03:00 +28°C° 0 mm 1 mps 684 mmHg 44%
    04:00 +29°C° 0 mm 1 mps 684 mmHg 43%
    05:00 +29°C° 0 mm 1 mps 684 mmHg 42%
    06:00 +29°C° 0 mm 1 mps 684 mmHg 41%
    07:00 +31°C° 0 mm 1 mps 685 mmHg 37%
    08:00 +33°C° 0 mm 1 mps 685 mmHg 32%
    09:00 +34°C° 0 mm 1 mps 685 mmHg 28%
    10:00 +37°C° 0 mm 2 mps 685 mmHg 25%
    11:00 +38°C° 0 mm 2 mps 685 mmHg 22%
    12:00 +40°C° 0 mm 3 mps 684 mmHg 18%
    13:00 +42°C° 0 mm 3 mps 684 mmHg 17%
    14:00 +43°C° 0 mm 3 mps 684 mmHg 16%
    15:00 +44°C° 0 mm 4 mps 684 mmHg 15%
    16:00 +43°C° 0 mm 4 mps 684 mmHg 16%
    17:00 +43°C° 0 mm 4 mps 683 mmHg 17%
    18:00 +43°C° 0 mm 4 mps 683 mmHg 18%
    19:00 +41°C° 0 mm 4 mps 683 mmHg 23%
    20:00 +38°C° 0 mm 4 mps 684 mmHg 27%
    21:00 +35°C° 0 mm 3 mps 684 mmHg 32%
    22:00 +35°C° 0 mm 3 mps 684 mmHg 34%
    23:00 +34°C° 0 mm 3 mps 684 mmHg 36%

    26 July, Thursday

    Time Temperature Precipitation Wind Pressure Humidity
    00:00 +32°C° 0 mm 2 mps 683 mmHg 37%
    01:00 +32°C° 0 mm 2 mps 683 mmHg 38%
    02:00 +31°C° 0 mm 2 mps 683 mmHg 40%
    03:00 +31°C° 0 mm 2 mps 683 mmHg 41%
    04:00 +31°C° 0 mm 2 mps 684 mmHg 40%
    05:00 +31°C° 0 mm 2 mps 684 mmHg 39%
    06:00 +31°C° 0 mm 1 mps 684 mmHg 39%
    07:00 +34°C° 0 mm 2 mps 684 mmHg 34%
    08:00 +36°C° 0 mm 2 mps 685 mmHg 30%
    09:00 +38°C° 0 mm 2 mps 685 mmHg 26%
    10:00 +40°C° 0 mm 3 mps 685 mmHg 23%
    11:00 +42°C° 0 mm 4 mps 684 mmHg 20%
    12:00 +44°C° 0 mm 4 mps 684 mmHg 18%
    13:00 +45°C° 0 mm 5 mps 684 mmHg 17%
    14:00 +46°C° 0 mm 5 mps 684 mmHg 16%
    15:00 +47°C° 0 mm 6 mps 684 mmHg 15%
    16:00 +46°C° 0 mm 6 mps 684 mmHg 17%
    17:00 +45°C° 0 mm 6 mps 684 mmHg 18%
    18:00 +44°C° 0 mm 6 mps 684 mmHg 20%
    19:00 +41°C° 0 mm 6 mps 684 mmHg 25%
    20:00 +39°C° 0 mm 5 mps 684 mmHg 29%
    21:00 +37°C° 0 mm 4 mps 684 mmHg 33%
    22:00 +36°C° 0 mm 3 mps 684 mmHg 36%
    23:00 +35°C° 0 mm 3 mps 684 mmHg 38%
    Show more